TimeCST,TemperatureF,Dew PointF,Humidity,Sea Level PressureIn,VisibilityMPH,Wind Direction,Wind SpeedMPH,Gust SpeedMPH,PrecipitationIn,Events,Conditions,WindDirDegrees,DateUTC
12:53 AM,50.0,46.9,89,30.28,9.0,NNE,4.6,-,N/A,,Clear,20,2012-11-30 06:53:00
1:53 AM,51.1,46.9,86,30.29,10.0,North,4.6,-,N/A,,Overcast,10,2012-11-30 07:53:00
2:53 AM,50.0,46.9,89,30.27,10.0,North,4.6,-,N/A,,Clear,360,2012-11-30 08:53:00
3:53 AM,50.0,46.9,89,30.27,9.0,NNE,4.6,-,N/A,,Clear,30,2012-11-30 09:53:00
4:53 AM,50.0,46.9,89,30.27,9.0,NNE,5.8,-,N/A,,Clear,30,2012-11-30 10:53:00
5:53 AM,51.1,48.0,89,30.29,10.0,NE,4.6,-,N/A,,Clear,50,2012-11-30 11:53:00
6:53 AM,52.0,48.9,89,30.29,8.0,Variable,4.6,-,N/A,,Mostly Cloudy,0,2012-11-30 12:53:00
7:26 AM,53.6,48.2,82,30.28,8.0,Variable,6.9,-,N/A,,Overcast,0,2012-11-30 13:26:00
7:45 AM,53.6,50.0,88,30.29,8.0,NE,6.9,-,N/A,,Overcast,50,2012-11-30 13:45:00
7:53 AM,54.0,50.0,86,30.30,8.0,NE,8.1,-,N/A,,Overcast,40,2012-11-30 13:53:00
8:53 AM,57.0,53.1,87,30.30,6.0,ENE,3.5,-,N/A,,Overcast,60,2012-11-30 14:53:00
9:53 AM,61.0,55.0,81,30.31,9.0,Variable,6.9,-,N/A,,Overcast,0,2012-11-30 15:53:00
10:28 AM,62.6,57.2,82,30.29,10.0,Variable,4.6,-,N/A,,Mostly Cloudy,0,2012-11-30 16:28:00
10:53 AM,63.0,55.9,78,30.30,10.0,Calm,Calm,-,N/A,,Mostly Cloudy,0,2012-11-30 16:53:00
11:53 AM,66.9,55.9,68,30.27,10.0,ENE,4.6,-,N/A,,Overcast,70,2012-11-30 17:53:00
12:53 PM,69.1,55.9,63,30.24,10.0,East,4.6,-,N/A,,Mostly Cloudy,80,2012-11-30 18:53:00
1:53 PM,68.0,57.0,68,30.22,10.0,ESE,4.6,-,N/A,,Overcast,120,2012-11-30 19:53:00
2:53 PM,66.0,57.9,75,30.22,10.0,East,4.6,-,N/A,,Overcast,90,2012-11-30 20:53:00
3:53 PM,66.0,59.0,78,30.22,10.0,East,4.6,-,N/A,,Overcast,80,2012-11-30 21:53:00
4:53 PM,66.0,59.0,78,30.22,10.0,East,4.6,-,N/A,,Overcast,80,2012-11-30 22:53:00
5:53 PM,66.2,59.0,78,30.22,10.0,ENE,4.6,-,N/A,,Overcast,70,2012-11-30 23:53:00
6:53 PM,66.0,57.9,75,30.24,10.0,East,4.6,-,N/A,,Overcast,80,2012-12-01 00:53:00
7:53 PM,66.2,57.2,73,30.23,10.0,ENE,5.8,-,N/A,,Overcast,60,2012-12-01 01:53:00
8:53 PM,64.0,57.9,80,30.25,10.0,East,5.8,-,N/A,,Mostly Cloudy,80,2012-12-01 02:53:00
9:53 PM,63.0,57.0,81,30.25,10.0,East,5.8,-,N/A,,Clear,80,2012-12-01 03:53:00
10:53 PM,62.1,57.0,84,30.25,10.0,East,4.6,-,N/A,,Mostly Cloudy,80,2012-12-01 04:53:00
11:53 PM,62.1,57.0,84,30.24,10.0,ENE,3.5,-,N/A,,Overcast,60,2012-12-01 05:53:00